Tracking 19242 objects as of 15-Aug-2018
HD Live streaming from Space Station
objects crossing your sky now

ASTRON

Track ASTRON now!
ASTRON is classified as:


NORAD ID: 13901
Int'l Code: 1983-020A
Perigee: 18,509.6 km
Apogee: 185,918.6 km
Inclination: 40.8 °
Period: 5,934.9 minutes
Semi major axis: 108585 km
RCS: 7.9432 m2 (large)
Launch date: March 23, 1983
Source: Commonwealth of Independent States (former USSR) (CIS)
Launch site: TYURATAM MISSILE AND SPACE COMPLEX (TTMTR)
aabbcc
Your satellite tracking list
Your tracking list is empty




NASA's NSSDC Master Catalog

Two Line Element Set (TLE):
1 13901U 83020A   18226.61354879 -.00000271 +00000-0 +00000-0 0  9990
2 13901 040.7680 241.6490 7708654 185.3447 000.9410 00.24263182044466
Source of the keplerian elements: AFSPC